"2016-02-11 00:00:00",1363611,15.36,309.8,1.851,0.494,17.71,106.157,15.03,16,6.347,0,110.6,13.19,15.84,271.8
"2016-02-11 00:00:30",1363612,15.57,309,1.37,0.19,17.57,106.157,15.03,16,6.39,0,110.6,13.19,15.84,271.0
"2016-02-11 00:01:00",1363613,16.25,309.4,1.307,0.357,17.73,106.1572,15.04,16.01,6.339,0,110.6,13.2,15.84,271.4
"2016-02-11 00:01:30",1363614,16.49,310.4,0.647,0.532,17.68,106.1623,15.05,16.02,6.302,0,110.6,13.2,15.85,272.4
"2016-02-11 00:02:00",1363615,15.47,309.1,1.317,0.36,17.73,106.1736,15.08,16.02,6.289,0,110.6,13.19,15.88,271.1
"2016-02-11 00:02:30",1363616,15.67,311.1,1.088,0.539,17.7,106.1778,15.09,16.04,6.343,0,110.6,13.19,15.89,273.1
"2016-02-11 00:03:00",1363617,16.15,313.1,1.631,0.54,17.81,106.1826,15.1,16.04,6.271,0,110.6,13.19,15.91,275.1
"2016-02-11 00:03:30",1363618,14.84,313.1,1.128,0.838,17.72,106.1852,15.11,16.04,6.262,0,110.6,13.19,15.91,275.1
"2016-02-11 00:04:00",1363619,15.41,313.8,1.416,0.723,17.8,106.1891,15.12,16.04,6.31,0,110.6,13.18,15.92,275.8
"2016-02-11 00:04:30",1363620,15.69,311.2,2.178,0.534,17.6,106.1908,15.12,16.07,6.404,0,110.6,13.18,15.93,273.2
"2016-02-11 00:05:00",1363621,15.46,308.9,2.263,0.553,17.39,106.1908,15.12,16.05,6.604,0,110.6,13.18,15.93,270.9
"2016-02-11 00:05:30",1363622,15.34,310.8,1.872,0.483,17.5,106.1908,15.12,16.06,6.804,0,110.6,13.18,15.93,272.8
"2016-02-11 00:06:00",1363623,15.58,311.6,1.298,0.377,17.73,106.1888,15.12,16.06,6.491,0,110.6,13.18,15.92,273.6
"2016-02-11 00:06:30",1363624,15.83,311.9,0.691,0.236,17.68,106.1874,15.11,16.05,6.402,0,110.6,13.18,15.92,273.9
"2016-02-11 00:07:00",1363625,15.54,312.4,0.919,0.293,17.74,106.1835,15.1,16.05,6.332,0,110.6,13.18,15.91,274.4
"2016-02-11 00:07:30",1363626,14.86,309.9,1.29,0.222,17.57,106.1837,15.1,16.04,6.349,0,110.6,13.18,15.91,271.9
"2016-02-11 00:08:00",1363627,15.01,309.9,0.774,0.269,17.63,106.1826,15.1,16.05,6.365,0,110.6,13.19,15.91,271.9
"2016-02-11 00:08:30",1363628,15.6,310.7,1.312,0.363,17.5,106.179,15.09,16.05,6.477,0,110.6,13.19,15.90,272.7
"2016-02-11 00:09:00",1363629,15.7,308.8,0.726,0.367,17.52,106.1739,15.08,16.05,6.59,0,110.6,13.19,15.88,270.8
"2016-02-11 00:09:30",1363630,15.65,310.3,0.941,0.337,17.6,106.1677,15.06,16.04,6.463,0,110.6,13.19,15.87,272.3
"2016-02-11 00:10:00",1363631,15.85,310.6,0.578,0.478,17.62,106.1592,15.04,16.02,6.42,0,110.6,13.19,15.85,272.6
"2016-02-11 00:10:30",1363632,16.03,310.9,1.226,0.317,17.63,106.157,15.03,16.02,6.381,0,110.6,13.19,15.84,272.9
"2016-02-11 00:11:00",1363633,15.58,310.7,1.118,0.262,17.62,106.157,15.03,16.02,6.404,0,110.6,13.19,15.84,272.7
"2016-02-11 00:11:30",1363634,15.65,310.8,0.851,0.322,17.57,106.157,15.03,16.02,6.477,0,110.6,13.19,15.84,272.8
"2016-02-11 00:12:00",1363635,16.6,311.3,0.693,0.403,17.66,106.1564,15.03,16,6.559,0,110.6,13.19,15.84,273.3
"2016-02-11 00:12:30",1363636,16.44,309.9,1.472,0.359,17.57,106.1508,15.02,16,6.554,0,110.6,13.19,15.82,271.9
"2016-02-11 00:13:00",1363637,15.92,309.3,0.886,0.319,17.49,106.1415,15,15.98,6.677,0,110.6,13.19,15.80,271.3
"2016-02-11 00:13:30",1363638,16.24,309.6,1.708,0.366,17.57,106.1353,14.98,15.97,6.678,0,110.6,13.19,15.78,271.6
"2016-02-11 00:14:00",1363639,16.77,306.9,1.097,0.399,17.52,106.1243,14.95,15.95,6.715,0,110.6,13.19,15.76,268.9
"2016-02-11 00:14:30",1363640,16.73,309.7,1.195,0.489,17.57,106.1231,14.95,15.94,6.809,0,110.6,13.19,15.75,271.7
"2016-02-11 00:15:00",1363641,16.05,309.8,0.991,0.377,17.59,106.1223,14.95,15.93,6.74,0,110.6,13.19,15.75,271.8
"2016-02-11 00:15:30",1363642,15.87,309.3,0.905,0.578,17.59,106.1141,14.93,15.92,6.827,0,110.6,13.19,15.73,271.3
"2016-02-11 00:16:00",1363643,16.02,308.8,1.922,0.332,17.6,106.1028,14.9,15.9,6.867,0,110.6,13.19,15.70,270.8
"2016-02-11 00:16:30",1363644,15.79,309,1.666,0.244,17.76,106.0899,14.86,15.89,6.727,0,110.6,13.19,15.67,271.0
"2016-02-11 00:17:00",1363645,15.76,309,1.948,0.401,17.82,106.0893,14.86,15.88,6.703,0,110.6,13.19,15.67,271.0
"2016-02-11 00:17:30",1363646,15.71,308.1,1.095,0.416,17.72,106.0893,14.86,15.86,6.644,0,110.6,13.19,15.67,270.1
"2016-02-11 00:18:00",1363647,16.4,308.1,0.858,0.287,17.58,106.089,14.86,15.85,6.826,0,110.6,13.19,15.66,270.1
"2016-02-11 00:18:30",1363648,16.21,309,1.263,0.469,17.7,106.0851,14.85,15.84,6.771,0,110.6,13.19,15.65,271.0
"2016-02-11 00:19:00",1363649,15.48,309.8,1.624,0.24,17.74,106.078,14.83,15.82,6.706,0,110.6,13.19,15.64,271.8
"2016-02-11 00:19:30",1363650,15.72,310.5,1.676,0.192,17.69,106.0696,14.81,15.82,6.706,0,110.6,13.19,15.61,272.5
"2016-02-11 00:20:00",1363651,15.56,310.9,1.506,0.244,17.67,106.0563,14.78,15.8,6.746,0,110.6,13.18,15.58,272.9
"2016-02-11 00:20:30",1363652,15.14,313.2,0.779,0.452,17.85,106.0555,14.77,15.78,6.577,0,110.6,13.18,15.58,275.2
"2016-02-11 00:21:00",1363653,14.91,313.4,0.908,0.314,17.76,106.0555,14.77,15.78,6.575,0,110.6,13.18,15.58,275.4
"2016-02-11 00:21:30",1363654,15.26,311.9,1.86,0.892,17.6,106.0552,14.77,15.76,6.728,0,110.6,13.18,15.58,273.9
"2016-02-11 00:22:00",1363655,16.57,310.3,1.047,0.907,17.64,106.0481,14.76,15.75,6.769,0,110.6,13.18,15.56,272.3
"2016-02-11 00:22:30",1363656,16.78,310,1.076,0.404,17.53,106.0383,14.73,15.74,6.659,0,110.6,13.18,15.53,272.0
"2016-02-11 00:23:00",1363657,17.01,315.8,8.09,1.875,19.11,106.0228,14.69,15.83,7.037,0,110.5,13.14,15.49,277.8
"2016-02-11 00:23:30",1363658,18.58,318,7.465,1.345,19.74,106.0216,14.69,15.82,6.907,0,110.6,13.13,15.49,280.0
"2016-02-11 00:24:00",1363659,17.24,310.9,1.248,0.416,17.36,106.0194,14.68,15.76,6.788,0,110.6,13.18,15.49,272.9
"2016-02-11 00:24:30",1363660,17.42,312.7,1.529,0.634,17.08,106.0115,14.66,15.68,6.616,0,110.6,13.18,15.47,274.7
"2016-02-11 00:25:00",1363661,16.39,309.3,2.158,0.38,16.97,106.0002,14.63,15.66,6.759,0,110.6,13.19,15.44,271.3
"2016-02-11 00:25:30",1363662,16.76,310.3,1.025,0.253,17.38,105.9926,14.61,15.65,6.649,0,110.6,13.19,15.42,272.3
"2016-02-11 00:26:00",1363663,16.41,311.9,1.534,0.405,17.45,105.9884,14.6,15.63,6.53,0,110.6,13.19,15.41,273.9
"2016-02-11 00:26:30",1363664,16.34,308.8,2.244,0.384,17.32,105.9878,14.6,15.61,6.574,0,110.5,13.19,15.40,270.8
"2016-02-11 00:27:00",1363665,16.24,312.8,3.537,0.518,17.68,105.9878,14.6,15.6,6.667,0,110.5,13.19,15.40,274.8
"2016-02-11 00:27:30",1363666,16.66,311.4,0.837,0.23,17.61,105.9878,14.6,15.59,6.522,0,110.5,13.19,15.40,273.4
"2016-02-11 00:28:00",1363667,16.72,310.8,1.781,0.467,17.47,105.9878,14.6,15.59,6.693,0,110.5,13.19,15.40,272.8
"2016-02-11 00:28:30",1363668,16.43,309.8,1.145,0.242,17.56,105.987,14.6,15.59,6.646,0,110.5,13.19,15.40,271.8
"2016-02-11 00:29:00",1363669,16.56,311.5,1.103,0.312,17.51,105.9811,14.58,15.57,6.654,0,110.5,13.2,15.39,273.5
"2016-02-11 00:29:30",1363670,17.27,315.7,6.446,1.165,19.02,105.9729,14.56,15.74,6.818,0,110.5,13.15,15.37,277.7
"2016-02-11 00:30:00",1363671,19.39,317.4,8.23,1.508,20.05,105.963,14.54,15.7,6.761,0,110.5,13.15,15.34,279.4
"2016-02-11 00:30:30",1363672,17.8,309.1,1.499,0.333,17.03,105.9543,14.52,15.55,6.507,0,110.5,13.2,15.32,271.1
"2016-02-11 00:31:00",1363673,18.29,313.6,7.523,1.353,18.68,105.954,14.51,15.7,6.673,0,110.5,13.15,15.32,275.6
"2016-02-11 00:31:30",1363674,18.33,316.5,7.485,1.557,19.62,105.954,14.51,15.66,6.621,0,110.5,13.15,15.32,278.5
"2016-02-11 00:32:00",1363675,16.66,311.7,1.208,0.272,17.03,105.954,14.51,15.51,6.38,0,110.5,13.19,15.32,273.7
"2016-02-11 00:32:30",1363676,16.08,313.5,0.437,0.243,17.19,105.9526,14.51,15.5,6.353,0,110.5,13.19,15.31,275.5
"2016-02-11 00:33:00",1363677,15.63,313.3,1.033,0.349,17.25,105.9481,14.5,15.51,6.364,0,110.5,13.19,15.30,275.3
"2016-02-11 00:33:30",1363678,15.59,313,1.081,0.202,17.33,105.9455,14.49,15.49,6.413,0,110.5,13.19,15.30,275.0
"2016-02-11 00:34:00",1363679,15.42,312.4,1.165,0.28,17.39,105.9416,14.48,15.47,6.491,0,110.5,13.2,15.29,274.4
"2016-02-11 00:34:30",1363680,16.62,312,2.643,0.563,17.55,105.9359,14.47,15.54,6.654,0,110.5,13.2,15.27,274.0
"2016-02-11 00:35:00",1363681,18.25,316.1,9.12,1.709,20.07,105.9345,14.47,15.66,7.007,0,110.5,13.15,15.27,278.1
"2016-02-11 00:35:30",1363682,18.38,318.9,7.503,1.415,20.53,105.9216,14.43,15.68,6.998,0,110.5,13.15,15.23,280.9
"2016-02-11 00:36:00",1363683,18.68,320.4,7.723,1.499,20.16,105.9202,14.43,15.7,7.062,0,110.5,13.15,15.23,282.4
"2016-02-11 00:36:30",1363684,17.94,317.2,7.809,1.54,18.65,105.9176,14.42,15.62,7.108,0,110.5,13.15,15.22,279.2
"2016-02-11 00:37:00",1363685,17.23,312.9,4.39,0.714,17.1,105.9063,14.39,15.44,6.933,0,110.5,13.15,15.20,274.9
"2016-02-11 00:37:30",1363686,17.41,311.5,1.67,0.366,16.79,105.888,14.35,15.38,6.758,0,110.5,13.19,15.15,273.5
"2016-02-11 00:38:00",1363687,17.15,311.5,1.199,0.407,17.13,105.8863,14.34,15.39,6.594,0,110.5,13.19,15.14,273.5
"2016-02-11 00:38:30",1363688,17.4,310.4,1.125,0.389,17.17,105.8863,14.34,15.37,6.525,0,110.5,13.19,15.14,272.4
"2016-02-11 00:39:00",1363689,17.22,312.3,1.107,0.282,17.31,105.8863,14.34,15.36,6.575,0,110.5,13.19,15.14,274.3
"2016-02-11 00:39:30",1363690,18.39,315.7,5.671,1.591,18.54,105.886,14.34,15.48,6.925,0,110.5,13.14,15.14,277.7
"2016-02-11 00:40:00",1363691,18.99,318,7.352,1.303,19.21,105.8841,14.34,15.49,6.954,0,110.5,13.14,15.14,280.0
"2016-02-11 00:40:30",1363692,19,320.7,7.56,1.633,19.75,105.8739,14.31,15.53,6.827,0,110.5,13.14,15.11,282.7
"2016-02-11 00:41:00",1363693,18.24,315.9,6.637,1.32,18.17,105.8708,14.3,15.43,6.688,0,110.5,13.14,15.10,277.9
"2016-02-11 00:41:30",1363694,17.89,310.9,2.642,0.421,16.66,105.8689,14.3,15.38,6.698,0,110.5,13.19,15.10,272.9
"2016-02-11 00:42:00",1363695,18.76,317.6,6.564,1.377,19.08,105.8591,14.27,15.45,7.067,0,110.5,13.14,15.07,279.6
"2016-02-11 00:42:30",1363696,18.06,314,5.913,1.251,18.28,105.8546,14.26,15.42,6.985,0,110.5,13.15,15.06,276.0
"2016-02-11 00:43:00",1363697,17.23,312.7,1.483,0.381,17.04,105.857,14.27,15.29,6.678,0,110.5,13.19,15.07,274.7
"2016-02-11 00:43:30",1363698,16.49,310.2,1.46,0.288,17.05,105.8582,14.27,15.26,6.592,0,110.5,13.2,15.07,272.2
"2016-02-11 00:44:00",1363699,17.61,317.6,7.472,1.327,19.07,105.8588,14.27,15.37,6.708,0,110.5,13.15,15.07,279.6
"2016-02-11 00:44:30",1363700,16.18,320.7,7.187,1.607,19.14,105.8579,14.27,15.44,6.759,0,110.5,13.15,15.07,282.7
"2016-02-11 00:45:00",1363701,16.25,320.7,8.21,1.518,19.12,105.856,14.26,15.46,6.779,0,110.5,13.15,15.07,282.7
"2016-02-11 00:45:30",1363702,16.79,318.5,7.952,1.312,18.56,105.8532,14.26,15.34,6.711,0,110.5,13.15,15.06,280.5
"2016-02-11 00:46:00",1363703,15.43,314.5,3.838,0.387,16.68,105.8522,14.25,15.24,6.651,0,110.5,13.2,15.06,276.5
"2016-02-11 00:46:30",1363704,14.29,318.6,2.642,0.783,16.98,105.8508,14.25,15.25,6.587,0,110.5,13.19,15.05,280.6
"2016-02-11 00:47:00",1363705,15.51,313.2,1.601,0.39,16.94,105.8474,14.24,15.23,6.584,0,110.5,13.2,15.04,275.2
"2016-02-11 00:47:30",1363706,16.72,319.7,7.503,1.469,19.43,105.8461,14.24,15.35,6.734,0,110.5,13.16,15.04,281.7
"2016-02-11 00:48:00",1363707,17,317.9,6.159,1.352,18.74,105.8439,14.23,15.34,6.752,0,110.5,13.16,15.03,279.9
"2016-02-11 00:48:30",1363708,16.25,318.8,6.538,1.185,18.49,105.842,14.23,15.35,6.898,0,110.5,13.16,15.03,280.8
"2016-02-11 00:49:00",1363709,16.36,318.9,7.83,1.535,19.99,105.8343,14.21,15.45,7.004,0,110.5,13.16,15.01,280.9
"2016-02-11 00:49:30",1363710,16.71,314.3,7.365,1.642,19.37,105.833,14.21,15.38,6.794,0,110.5,13.16,15.01,276.3
"2016-02-11 00:50:00",1363711,12.31,313.9,6.388,1.733,16.93,105.8323,14.2,15.25,6.599,0,110.5,13.2,15.00,275.9
"2016-02-11 00:50:30",1363712,11.22,307.7,6.423,0.992,16.93,105.8367,14.21,15.2,6.532,0,110.5,13.2,15.02,269.7
"2016-02-11 00:51:00",1363713,9.54,301.9,7.446,0.817,17.12,105.85,14.25,15.22,6.475,0,110.5,13.2,15.05,263.9
"2016-02-11 00:51:30",1363714,10.56,308.8,4.57,0.898,17.32,105.8677,14.29,15.22,6.413,0,110.5,13.2,15.10,270.8
"2016-02-11 00:52:00",1363715,11.37,309.9,5.253,0.502,17.12,105.8689,14.3,15.22,6.399,0,110.5,13.21,15.10,271.9
"2016-02-11 00:52:30",1363716,11.85,313.3,2.971,0.482,17.23,105.8692,14.3,15.24,6.427,0,110.5,13.21,15.10,275.3
"2016-02-11 00:53:00",1363717,13.6,314.1,0.954,0.343,17.14,105.8728,14.31,15.26,6.598,0,110.5,13.21,15.11,276.1
"2016-02-11 00:53:30",1363718,13.66,312.4,1.717,0.333,17.38,105.8725,14.31,15.32,6.657,0,110.5,13.2,15.11,274.4
"2016-02-11 00:54:00",1363719,15.59,324.2,7.009,1.318,21.05,105.8743,14.31,15.54,6.863,0,110.4,13.16,15.11,286.2
"2016-02-11 00:54:30",1363720,15.66,323.1,7.083,1.438,20.49,105.8737,14.31,15.53,6.76,0,110.5,13.15,15.11,285.1
"2016-02-11 00:55:00",1363721,14.4,319,7.72,1.424,19.46,105.8737,14.31,15.5,6.705,0,110.5,13.15,15.11,281.0
"2016-02-11 00:55:30",1363722,15.07,316.2,7.207,1.417,18.01,105.8749,14.31,15.41,6.685,0,110.5,13.15,15.11,278.2
"2016-02-11 00:56:00",1363723,13.7,310.4,2.729,0.545,16.92,105.8752,14.31,15.28,6.507,0,110.5,13.2,15.12,272.4
"2016-02-11 00:56:30",1363724,14.12,310.3,1.253,0.172,16.67,105.8731,14.31,15.26,6.419,0,110.5,13.2,15.11,272.3
"2016-02-11 00:57:00",1363725,14.85,311.1,1.408,0.247,16.75,105.8761,14.32,15.26,6.511,0,110.4,13.2,15.12,273.1
"2016-02-11 00:57:30",1363726,14.31,313.5,1.247,0.813,17.09,105.8782,14.32,15.25,6.592,0,110.4,13.2,15.12,275.5
"2016-02-11 00:58:00",1363727,14.32,310.3,1.412,0.307,17.12,105.8757,14.31,15.26,6.561,0,110.5,13.2,15.12,272.3
"2016-02-11 00:58:30",1363728,14.4,314.6,6.893,1.15,18.75,105.8721,14.31,15.36,6.631,0,110.4,13.15,15.11,276.6
"2016-02-11 00:59:00",1363729,13.39,314.9,6.72,1.617,19.08,105.8659,14.29,15.39,6.69,0,110.5,13.16,15.09,276.9
"2016-02-11 00:59:30",1363730,14.38,318.4,7.433,1.734,20.23,105.859,14.27,15.5,6.837,0,110.4,13.16,15.07,280.4
"2016-02-11 01:00:00",1363731,14.94,321.4,7.523,1.425,20.27,105.8511,14.25,15.51,6.817,0,110.4,13.16,15.05,283.4
"2016-02-11 01:00:30",1363732,12.6,316.2,6.466,1.686,18.08,105.8509,14.25,15.32,6.629,0,110.4,13.16,15.05,278.2
"2016-02-11 01:01:00",1363733,13.16,311.5,2.355,0.604,16.58,105.8512,14.25,15.23,6.554,0,110.4,13.2,15.05,273.5
"2016-02-11 01:01:30",1363734,12.66,316.5,3.907,0.653,16.93,105.8509,14.25,15.24,6.536,0,110.4,13.2,15.05,278.5
"2016-02-11 01:02:00",1363735,13.32,316.4,3.501,0.491,16.98,105.853,14.26,15.23,6.56,0,110.4,13.21,15.06,278.4
"2016-02-11 01:02:30",1363736,13.54,318.2,1.869,0.355,17.03,105.8542,14.26,15.23,6.662,0,110.4,13.21,15.06,280.2
"2016-02-11 01:03:00",1363737,13.82,315.3,2.243,0.389,17.25,105.8542,14.26,15.27,6.637,0,110.4,13.21,15.06,277.3
"2016-02-11 01:03:30",1363738,15.22,321.2,7.378,1.417,20.06,105.8521,14.25,15.4,6.77,0,110.4,13.16,15.06,283.2
"2016-02-11 01:04:00",1363739,14.87,322.4,7.818,1.602,19.71,105.8533,14.26,15.38,6.845,0,110.4,13.16,15.06,284.4
"2016-02-11 01:04:30",1363740,14.66,319.1,7.708,1.462,19.68,105.8524,14.25,15.44,6.959,0,110.4,13.16,15.06,281.1
"2016-02-11 01:05:00",1363741,14.25,319.1,7.432,1.428,19.67,105.8476,14.24,15.46,7.116,0,110.4,13.16,15.04,281.1
"2016-02-11 01:05:30",1363742,13.4,312.4,5.773,1.11,16.94,105.8362,14.21,15.21,6.888,0,110.4,13.16,15.01,274.4
"2016-02-11 01:06:00",1363743,13.1,312.1,1.322,0.32,16.51,105.8209,14.17,15.19,6.785,0,110.4,13.21,14.98,274.1
"2016-02-11 01:06:30",1363744,13.38,311.2,1.109,0.241,16.57,105.8206,14.17,15.18,6.783,0,110.4,13.21,14.97,273.2
"2016-02-11 01:07:00",1363745,13.47,312.7,0.723,0.283,16.89,105.8206,14.17,15.15,6.782,0,110.4,13.21,14.97,274.7
"2016-02-11 01:07:30",1363746,13.81,316.2,6.862,1.224,18.43,105.8142,14.16,15.29,6.898,0,110.4,13.16,14.96,278.2
"2016-02-11 01:08:00",1363747,14.17,318.3,7.811,1.323,19.64,105.8012,14.12,15.31,6.967,0,110.4,13.16,14.93,280.3
"2016-02-11 01:08:30",1363748,13.97,315.9,7.532,1.467,18.14,105.7879,14.09,15.24,7.003,0,110.5,13.16,14.89,277.9
"2016-02-11 01:09:00",1363749,14.3,318.6,7.865,1.441,18.92,105.7868,14.09,15.35,7.261,0,110.4,13.16,14.89,280.6
"2016-02-11 01:09:30",1363750,13.54,318.7,7.083,1.428,18.53,105.7868,14.09,15.2,7.078,0,110.4,13.16,14.89,280.7
"2016-02-11 01:10:00",1363751,12.39,311.6,1.484,0.33,16.26,105.7809,14.07,15.13,7.035,0,110.4,13.21,14.87,273.6
"2016-02-11 01:10:30",1363752,12.84,310.2,1.376,0.286,16.34,105.7606,14.02,15.06,7.04,0,110.4,13.21,14.82,272.2
"2016-02-11 01:11:00",1363753,13.08,310.7,1.436,0.307,16.54,105.7532,14,15.05,7.085,0,110.4,13.21,14.80,272.7
"2016-02-11 01:11:30",1363754,14.57,316.1,7.102,1.396,19.09,105.753,14,15.18,7.167,0,110.4,13.16,14.80,278.1
"2016-02-11 01:12:00",1363755,14.33,318.5,7.735,1.627,19.28,105.7521,14,15.21,7.289,0,110.4,13.16,14.80,280.5
"2016-02-11 01:12:30",1363756,14,321.7,6.843,1.47,19.39,105.7417,13.97,15.24,7.224,0,110.4,13.16,14.77,283.7
"2016-02-11 01:13:00",1363757,12.98,319.6,3.98,1.101,17.24,105.7262,13.93,15.03,6.977,0,110.4,13.16,14.73,281.6
"2016-02-11 01:13:30",1363758,12.63,319,6.372,1.01,17.92,105.7194,13.91,15.06,7.015,0,110.4,13.16,14.71,281.0
"2016-02-11 01:14:00",1363759,12.12,318.4,6.24,1.493,18.28,105.7191,13.91,15.12,7.015,0,110.4,13.15,14.71,280.4
"2016-02-11 01:14:30",1363760,11.54,315.3,3.89,0.538,16.98,105.7191,13.91,14.97,6.921,0,110.4,13.16,14.71,277.3
"2016-02-11 01:15:00",1363761,11.05,313.4,1.187,0.38,16.72,105.7191,13.91,14.93,6.936,0,110.4,13.2,14.71,275.4
"2016-02-11 01:15:30",1363762,10.53,314.1,2.944,0.327,17.01,105.7191,13.91,14.92,6.937,0,110.4,13.21,14.71,276.1
"2016-02-11 01:16:00",1363763,11.39,317,7.299,1.184,18.28,105.7191,13.91,15.02,7.022,0,110.4,13.16,14.71,279.0
"2016-02-11 01:16:30",1363764,10.86,325.1,7.296,1.577,19.82,105.7191,13.91,15.11,7.104,0,110.4,13.16,14.71,287.1
"2016-02-11 01:17:00",1363765,11.51,322.9,7.874,1.756,18.95,105.7191,13.91,15.1,7.096,0,110.4,13.17,14.71,284.9
"2016-02-11 01:17:30",1363766,10.47,321,7.813,1.289,18.16,105.7191,13.91,14.98,6.889,0,110.4,13.17,14.71,283.0
"2016-02-11 01:18:00",1363767,10.13,315.8,1.81,0.248,16.62,105.7191,13.91,14.91,6.819,0,110.4,13.21,14.71,277.8
"2016-02-11 01:18:30",1363768,9.63,317,2.794,0.303,16.7,105.7191,13.91,14.91,6.844,0,110.4,13.21,14.71,279.0
"2016-02-11 01:19:00",1363769,8.25,314.6,3.308,0.572,17.03,105.7191,13.91,14.92,6.833,0,110.4,13.21,14.71,276.6
"2016-02-11 01:19:30",1363770,11.33,314.9,7.43,1.542,17.94,105.7191,13.91,15.04,7.047,0,110.4,13.17,14.71,276.9
"2016-02-11 01:20:00",1363771,11.99,316.5,7.349,1.409,18.49,105.7191,13.91,15.1,7.278,0,110.4,13.17,14.71,278.5
"2016-02-11 01:20:30",1363772,12.49,316.6,6.989,1.505,18.53,105.7191,13.91,15.03,7.287,0,110.4,13.17,14.71,278.6
"2016-02-11 01:21:00",1363773,13.2,323.5,7.199,1.454,20.33,105.7191,13.91,15.19,7.391,0,110.4,13.17,14.71,285.5
"2016-02-11 01:21:30",1363774,11.9,320.3,7.995,1.352,19.23,105.7191,13.91,15.06,7.172,0,110.4,13.17,14.71,282.3
"2016-02-11 01:22:00",1363775,9.9,316.1,3.096,0.517,16.29,105.7191,13.91,14.9,7.01,0,110.4,13.17,14.71,278.1
"2016-02-11 01:22:30",1363776,10.18,316.2,3.264,0.495,16.34,105.7191,13.91,14.91,6.997,0,110.4,13.21,14.71,278.2
"2016-02-11 01:23:00",1363777,9.62,312.8,6.618,0.892,16.58,105.7191,13.91,14.91,6.893,0,110.4,13.21,14.71,274.8
"2016-02-11 01:23:30",1363778,11.08,308.4,4.113,0.715,16.52,105.7188,13.91,14.91,6.932,0,110.4,13.21,14.71,270.4
"2016-02-11 01:24:00",1363779,8.72,314.1,3.464,0.439,17.01,105.7135,13.9,14.89,6.913,0,110.4,13.22,14.70,276.1
"2016-02-11 01:24:30",1363780,9.69,311,8.45,0.983,17.54,105.7112,13.89,14.89,6.859,0,110.4,13.17,14.69,273.0
"2016-02-11 01:25:00",1363781,11.1,315,6.698,1.474,18.38,105.7101,13.89,15.07,7.062,0,110.4,13.17,14.69,277.0
"2016-02-11 01:25:30",1363782,11.25,317.5,7.38,1.329,19.35,105.7073,13.88,15.1,7.194,0,110.4,13.17,14.68,279.5
"2016-02-11 01:26:00",1363783,11.58,325.2,7.742,1.486,20.26,105.705,13.88,15.13,7.146,0,110.4,13.17,14.68,287.2
"2016-02-11 01:26:30",1363784,9.8,313.9,7.971,1.41,18.09,105.7045,13.88,14.99,6.949,0,110.4,13.17,14.68,275.9
"2016-02-11 01:27:00",1363785,9.59,312.4,5.117,0.851,16.27,105.7033,13.87,14.88,6.818,0,110.4,13.22,14.67,274.4
"2016-02-11 01:27:30",1363786,11.62,310.4,2.975,0.568,16.24,105.7076,13.88,14.88,6.829,0,110.4,13.21,14.68,272.4
"2016-02-11 01:28:00",1363787,10.19,312.9,6.353,0.751,16.55,105.7078,13.88,14.88,6.628,0,110.4,13.21,14.68,274.9
"2016-02-11 01:28:30",1363788,10.23,316.4,4.664,0.429,16.94,105.7095,13.89,14.89,6.613,0,110.4,13.21,14.69,278.4
"2016-02-11 01:29:00",1363789,8.4,314.7,5.871,0.786,17.05,105.7122,13.9,14.89,6.46,0,110.4,13.21,14.70,276.7
"2016-02-11 01:29:30",1363790,8.09,316.9,3.248,0.913,17.13,105.7115,13.89,14.9,6.441,0,110.4,13.21,14.69,278.9
"2016-02-11 01:30:00",1363791,11.65,315,7.024,1.127,18.27,105.713,13.9,14.92,6.696,0,110.4,13.17,14.70,277.0
"2016-02-11 01:30:30",1363792,11.55,318.4,6.794,1.762,19.48,105.7164,13.91,15.07,6.884,0,110.4,13.16,14.71,280.4
"2016-02-11 01:31:00",1363793,13.59,320.9,6.735,1.376,20.19,105.7138,13.9,15.15,7.073,0,110.4,13.16,14.70,282.9
"2016-02-11 01:31:30",1363794,12.52,322,8,1.423,19.62,105.7122,13.9,15.08,7.108,0,110.4,13.16,14.70,284.0
"2016-02-11 01:32:00",1363795,11.75,316.2,7.072,1.629,17.44,105.7083,13.89,15,7.092,0,110.4,13.16,14.69,278.2
"2016-02-11 01:32:30",1363796,11.16,312.3,2.918,0.507,15.99,105.7041,13.87,14.89,7.005,0,110.4,13.21,14.68,274.3
"2016-02-11 01:33:00",1363797,11.63,308.6,1.535,0.349,16,105.7014,13.87,14.88,7.019,0,110.4,13.21,14.67,270.6
"2016-02-11 01:33:30",1363798,11.55,305.6,1.091,0.156,15.97,105.6918,13.84,14.88,7.009,0,110.4,13.21,14.64,267.6
"2016-02-11 01:34:00",1363799,11.94,308.4,5.786,0.824,16.91,105.6915,13.84,14.96,7.17,0,110.4,13.17,14.64,270.4
"2016-02-11 01:34:30",1363800,12.22,315.3,7.227,1.414,18.39,105.6825,13.82,15.01,7.422,0,110.4,13.17,14.62,277.3
"2016-02-11 01:35:00",1363801,11.1,325,9.09,1.687,19.81,105.667,13.78,15.07,7.729,0,110.4,13.17,14.58,287.0
"2016-02-11 01:35:30",1363802,7.224,349,26.02,2.059,17.59,105.6581,13.76,15.04,8.59,0,110.4,13.17,14.56,311.0
"2016-02-11 01:36:00",1363803,3.344,359.1,14.73,1.382,15.08,105.5884,13.58,14.86,9.21,0,110.4,13.17,14.38,321.1
"2016-02-11 01:36:30",1363804,5.641,18.78,10.86,1.542,14.21,105.552,13.49,14.65,9.14,0,110.4,13.22,14.28,340.8
"2016-02-11 01:37:00",1363805,6.199,35.7,5.825,0.899,14.28,105.5264,13.42,14.58,9.29,0,110.4,13.21,14.22,357.7
"2016-02-11 01:37:30",1363806,4.621,18.36,9.56,1.395,14.65,105.4996,13.35,14.54,9.31,0,110.4,13.22,14.15,340.4
"2016-02-11 01:38:00",1363807,3.263,9.83,12.63,1.317,15,105.4709,13.28,14.49,9.28,0,110.4,13.22,14.08,331.8
"2016-02-11 01:38:30",1363808,5.251,31.19,9.84,2.135,17.27,105.4414,13.2,14.52,9.41,0,110.4,13.17,14.00,353.2
"2016-02-11 01:39:00",1363809,2.449,17.93,15.64,1.55,16.83,105.4262,13.16,14.54,9.45,0,110.4,13.17,13.96,339.9
"2016-02-11 01:39:30",1363810,4.843,3.246,16.08,1.898,18.42,105.405,13.11,14.53,9.66,0,110.4,13.17,13.91,325.2
"2016-02-11 01:40:00",1363811,2.571,353.5,22.78,1.936,16.45,105.3745,13.03,14.33,9.66,0,110.4,13.17,13.83,315.5
"2016-02-11 01:40:30",1363812,5.415,326.7,19.08,1.11,14.37,105.3537,12.98,14.17,9.22,0,110.4,13.22,13.78,288.7
"2016-02-11 01:41:00",1363813,3.697,15.27,11.11,1.377,14.3,105.3142,12.88,14.09,9.32,0,110.4,13.22,13.67,337.3
"2016-02-11 01:41:30",1363814,2.292,11.37,12.78,0.594,14.54,105.2985,12.84,14,9.32,0,110.4,13.22,13.63,333.4
"2016-02-11 01:42:00",1363815,5.067,339.1,3.028,0.408,14.78,105.281,12.79,13.97,9.33,0,110.4,13.22,13.59,301.1
"2016-02-11 01:42:30",1363816,3.747,353.9,14.29,1.385,15.06,105.2673,12.76,13.91,9.27,0,110.4,13.22,13.55,315.9
"2016-02-11 01:43:00",1363817,6.139,333.3,9.84,1.108,15.46,105.2464,12.7,13.9,9.26,0,110.4,13.22,13.50,295.3
"2016-02-11 01:43:30",1363818,7.541,343.1,13.86,1.823,19.04,105.2388,12.68,14.1,9.16,0,110.4,13.18,13.48,305.1
"2016-02-11 01:44:00",1363819,5.982,355.6,8.72,1.412,18.82,105.2193,12.63,14.08,9.42,0,110.4,13.18,13.43,317.6
"2016-02-11 01:44:30",1363820,4.137,7.203,17.61,1.938,17.15,105.2079,12.6,13.97,9.45,0,110.4,13.17,13.40,329.2
"2016-02-11 01:45:00",1363821,4.235,10.27,17.64,1.555,14.84,105.2024,12.59,13.72,9.12,0,110.4,13.21,13.39,332.3
"2016-02-11 01:45:30",1363822,2.923,4.912,18.62,1.246,14.81,105.1824,12.54,13.68,9.05,0,110.4,13.21,13.34,326.9
"2016-02-11 01:46:00",1363823,3.344,1.86,6.034,0.848,15.12,105.1762,12.52,13.63,8.96,0,110.4,13.21,13.32,323.9
"2016-02-11 01:46:30",1363824,5.263,346,12.98,1.864,15.27,105.1703,12.51,13.6,8.79,0,110.4,13.21,13.30,308.0
"2016-02-11 01:47:00",1363825,4.905,352.8,16.09,1.098,15.49,105.1551,12.47,13.58,8.85,0,110.4,13.21,13.26,314.8